Year,Month,Day,Hour,Minute,Value (Times are PST for temperature in C)
2016,05,17,00,00,11.00
2016,05,17,00,01,11.00
2016,05,17,00,02,10.90
2016,05,17,00,03,10.90
2016,05,17,00,04,10.90
2016,05,17,00,05,10.90
2016,05,17,00,06,10.90
2016,05,17,00,07,10.90
2016,05,17,00,08,10.90
2016,05,17,00,09,10.90
2016,05,17,00,10,10.90
2016,05,17,00,11,10.80
2016,05,17,00,12,10.80
2016,05,17,00,13,10.80
2016,05,17,00,14,10.80
2016,05,17,00,15,10.80
2016,05,17,00,16,10.80
2016,05,17,00,17,10.80
2016,05,17,00,18,10.80
2016,05,17,00,19,10.80
2016,05,17,00,20,10.80
2016,05,17,00,21,10.80
2016,05,17,00,22,10.90
2016,05,17,00,23,10.90
2016,05,17,00,24,10.90
2016,05,17,00,25,10.90
2016,05,17,00,26,10.90
2016,05,17,00,27,11.00
2016,05,17,00,28,11.00
2016,05,17,00,29,11.00
2016,05,17,00,30,11.00
2016,05,17,00,31,11.10
2016,05,17,00,32,11.10
2016,05,17,00,33,11.10
2016,05,17,00,34,11.10
2016,05,17,00,35,11.10
2016,05,17,00,36,11.10
2016,05,17,00,37,11.10
2016,05,17,00,38,11.10
2016,05,17,00,39,11.10
2016,05,17,00,40,11.10
2016,05,17,00,41,11.10
2016,05,17,00,42,11.10
2016,05,17,00,43,11.10
2016,05,17,00,44,11.10
2016,05,17,00,45,11.00
2016,05,17,00,46,11.00
2016,05,17,00,47,11.00
2016,05,17,00,48,11.00
2016,05,17,00,49,11.00
2016,05,17,00,50,11.00
2016,05,17,00,51,11.00
2016,05,17,00,52,11.00
2016,05,17,00,53,11.00
2016,05,17,00,54,11.00
2016,05,17,00,55,11.00
2016,05,17,00,56,11.00
2016,05,17,00,57,11.10
2016,05,17,00,58,11.10
2016,05,17,00,59,11.10
2016,05,17,01,00,11.10
2016,05,17,01,01,11.10
2016,05,17,01,02,11.10
2016,05,17,01,03,11.10
2016,05,17,01,04,11.10
2016,05,17,01,05,11.10
2016,05,17,01,06,11.10
2016,05,17,01,07,11.10
2016,05,17,01,08,11.10
2016,05,17,01,09,11.10
2016,05,17,01,10,11.10
2016,05,17,01,11,11.10
2016,05,17,01,12,11.10
2016,05,17,01,13,11.10
2016,05,17,01,14,11.10
2016,05,17,01,15,11.10
2016,05,17,01,16,11.10
2016,05,17,01,17,11.10
2016,05,17,01,18,11.10
2016,05,17,01,19,11.10
2016,05,17,01,20,11.00
2016,05,17,01,21,11.00
2016,05,17,01,22,10.90
2016,05,17,01,23,10.90
2016,05,17,01,24,10.80
2016,05,17,01,25,10.80
2016,05,17,01,26,10.80
2016,05,17,01,27,10.80
2016,05,17,01,28,10.80
2016,05,17,01,29,10.80
2016,05,17,01,30,10.80
2016,05,17,01,31,10.80
2016,05,17,01,32,10.80
2016,05,17,01,33,10.80
2016,05,17,01,34,10.80
2016,05,17,01,35,10.80
2016,05,17,01,36,10.80
2016,05,17,01,37,10.80
2016,05,17,01,38,10.80
2016,05,17,01,39,10.80
2016,05,17,01,40,10.80
2016,05,17,01,41,10.80
2016,05,17,01,42,10.90
2016,05,17,01,43,10.90
2016,05,17,01,44,10.90
2016,05,17,01,45,11.00
2016,05,17,01,46,11.00
2016,05,17,01,47,11.00
2016,05,17,01,48,11.10
2016,05,17,01,49,11.10
2016,05,17,01,50,11.00
2016,05,17,01,51,11.00
2016,05,17,01,52,11.00
2016,05,17,01,53,10.90
2016,05,17,01,54,10.90
2016,05,17,01,55,10.90
2016,05,17,01,56,10.90
2016,05,17,01,57,10.80
2016,05,17,01,58,10.80
2016,05,17,01,59,10.80
2016,05,17,02,00,10.80
2016,05,17,02,01,10.80
2016,05,17,02,02,10.80
2016,05,17,02,03,10.80
2016,05,17,02,04,10.80
2016,05,17,02,05,10.80
2016,05,17,02,06,10.80
2016,05,17,02,07,10.80
2016,05,17,02,08,10.80
2016,05,17,02,09,10.80
2016,05,17,02,10,10.80
2016,05,17,02,11,10.80
2016,05,17,02,12,10.80
2016,05,17,02,13,10.70
2016,05,17,02,14,10.70
2016,05,17,02,15,10.70
2016,05,17,02,16,10.70
2016,05,17,02,17,10.70
2016,05,17,02,18,10.70
2016,05,17,02,19,10.70
2016,05,17,02,20,10.70
2016,05,17,02,21,10.70
2016,05,17,02,22,10.70
2016,05,17,02,23,10.70
2016,05,17,02,24,10.70
2016,05,17,02,25,10.70
2016,05,17,02,26,10.70
2016,05,17,02,27,10.60
2016,05,17,02,28,10.60
2016,05,17,02,29,10.60
2016,05,17,02,30,10.60
2016,05,17,02,31,10.60
2016,05,17,02,32,10.60
2016,05,17,02,33,10.60
2016,05,17,02,34,10.60
2016,05,17,02,35,10.50
2016,05,17,02,36,10.50
2016,05,17,02,37,10.50
2016,05,17,02,38,10.50
2016,05,17,02,39,10.50
2016,05,17,02,40,10.50
2016,05,17,02,41,10.50
2016,05,17,02,42,10.40
2016,05,17,02,43,10.40
2016,05,17,02,44,10.40
2016,05,17,02,45,10.40
2016,05,17,02,46,10.40
2016,05,17,02,47,10.40
2016,05,17,02,48,10.40
2016,05,17,02,49,10.40
2016,05,17,02,50,10.40
2016,05,17,02,51,10.40
2016,05,17,02,52,10.30
2016,05,17,02,53,10.30
2016,05,17,02,54,10.30
2016,05,17,02,55,10.30
2016,05,17,02,56,10.30
2016,05,17,02,57,10.20
2016,05,17,02,58,10.20
2016,05,17,02,59,10.20
2016,05,17,03,00,10.20
2016,05,17,03,01,10.20
2016,05,17,03,02,10.20
2016,05,17,03,03,10.20
2016,05,17,03,04,10.20
2016,05,17,03,05,10.20
2016,05,17,03,06,10.20
2016,05,17,03,07,10.20
2016,05,17,03,08,10.10
2016,05,17,03,09,10.10
2016,05,17,03,10,10.10
2016,05,17,03,11,10.10
2016,05,17,03,12,10.10
2016,05,17,03,13,10.10
2016,05,17,03,14,10.20
2016,05,17,03,15,10.20
2016,05,17,03,16,10.20
2016,05,17,03,17,10.20
2016,05,17,03,18,10.20
2016,05,17,03,19,10.20
2016,05,17,03,20,10.20
2016,05,17,03,21,10.20
2016,05,17,03,22,10.20
2016,05,17,03,23,10.20
2016,05,17,03,24,10.20
2016,05,17,03,25,10.20
2016,05,17,03,26,10.20
2016,05,17,03,27,10.20
2016,05,17,03,28,10.20
2016,05,17,03,29,10.20
2016,05,17,03,30,10.20
2016,05,17,03,31,10.20
2016,05,17,03,32,10.20
2016,05,17,03,33,10.20
2016,05,17,03,34,10.20
2016,05,17,03,35,10.20
2016,05,17,03,36,10.20
2016,05,17,03,37,10.10
2016,05,17,03,38,10.10
2016,05,17,03,39,10.10
2016,05,17,03,40,10.20
2016,05,17,03,41,10.20
2016,05,17,03,42,10.20
2016,05,17,03,43,10.20
2016,05,17,03,44,10.20
2016,05,17,03,45,10.10
2016,05,17,03,46,10.10
2016,05,17,03,47,10.10
2016,05,17,03,48,10.10
2016,05,17,03,49,10.00
2016,05,17,03,50,10.00
2016,05,17,03,51,9.90
2016,05,17,03,52,9.90
2016,05,17,03,53,9.90
2016,05,17,03,54,9.90
2016,05,17,03,55,9.80
2016,05,17,03,56,9.80
2016,05,17,03,57,9.90
2016,05,17,03,58,9.90
2016,05,17,03,59,9.90
2016,05,17,04,00,9.90
2016,05,17,04,01,9.90
2016,05,17,04,02,9.90
2016,05,17,04,03,9.90
2016,05,17,04,04,9.90
2016,05,17,04,05,9.90
2016,05,17,04,06,9.90
2016,05,17,04,07,9.90
2016,05,17,04,08,9.90
2016,05,17,04,09,9.90
2016,05,17,04,10,9.90
2016,05,17,04,11,9.90
2016,05,17,04,12,9.90
2016,05,17,04,13,9.90
2016,05,17,04,14,9.90
2016,05,17,04,15,9.90
2016,05,17,04,16,10.00
2016,05,17,04,17,10.00
2016,05,17,04,18,10.00
2016,05,17,04,19,10.10
2016,05,17,04,20,10.10
2016,05,17,04,21,10.00
2016,05,17,04,22,10.00
2016,05,17,04,23,10.00
2016,05,17,04,24,10.00
2016,05,17,04,25,10.00
2016,05,17,04,26,10.00
2016,05,17,04,27,10.00
2016,05,17,04,28,10.00
2016,05,17,04,29,10.00
2016,05,17,04,30,10.00
2016,05,17,04,31,10.00
2016,05,17,04,32,10.00
2016,05,17,04,33,10.00
2016,05,17,04,34,10.00
2016,05,17,04,35,10.00
2016,05,17,04,36,10.10
2016,05,17,04,37,10.10
2016,05,17,04,38,10.10
2016,05,17,04,39,10.10
2016,05,17,04,40,10.10
2016,05,17,04,41,10.10
2016,05,17,04,42,10.10
2016,05,17,04,43,10.10
2016,05,17,04,44,10.10
2016,05,17,04,45,10.10
2016,05,17,04,46,10.10
2016,05,17,04,47,10.10
2016,05,17,04,48,10.10
2016,05,17,04,49,10.00
2016,05,17,04,50,10.00
2016,05,17,04,51,10.00
2016,05,17,04,52,10.00
2016,05,17,04,53,10.00
2016,05,17,04,54,10.00
2016,05,17,04,55,10.00
2016,05,17,04,56,10.00
2016,05,17,04,57,9.90
2016,05,17,04,58,9.90
2016,05,17,04,59,9.90
2016,05,17,05,00,9.90
2016,05,17,05,01,9.90
2016,05,17,05,02,9.90
2016,05,17,05,03,9.90
2016,05,17,05,04,9.90
2016,05,17,05,05,9.90
2016,05,17,05,06,9.90
2016,05,17,05,07,9.90
2016,05,17,05,08,9.90
2016,05,17,05,09,9.90
2016,05,17,05,10,9.90
2016,05,17,05,11,9.90
2016,05,17,05,12,9.90
2016,05,17,05,13,9.90
2016,05,17,05,14,9.90
2016,05,17,05,15,10.00
2016,05,17,05,16,10.00
2016,05,17,05,17,9.90
2016,05,17,05,18,9.90
2016,05,17,05,19,9.90
2016,05,17,05,20,9.90
2016,05,17,05,21,9.90
2016,05,17,05,22,10.00
2016,05,17,05,23,10.00
2016,05,17,05,24,10.00
2016,05,17,05,25,9.90
2016,05,17,05,26,9.90
2016,05,17,05,27,9.90
2016,05,17,05,28,9.80
2016,05,17,05,29,9.80
2016,05,17,05,30,9.80
2016,05,17,05,31,9.80
2016,05,17,05,32,9.80
2016,05,17,05,33,9.80
2016,05,17,05,34,9.80
2016,05,17,05,35,9.80
2016,05,17,05,36,9.80
2016,05,17,05,37,9.80
2016,05,17,05,38,9.80
2016,05,17,05,39,9.80
2016,05,17,05,40,9.80
2016,05,17,05,41,9.80
2016,05,17,05,42,9.80
2016,05,17,05,43,9.90
2016,05,17,05,44,9.90
2016,05,17,05,45,9.90
2016,05,17,05,46,9.90
2016,05,17,05,47,9.90
2016,05,17,05,48,10.00
2016,05,17,05,49,10.00
2016,05,17,05,50,10.00
2016,05,17,05,51,10.00
2016,05,17,05,52,10.00
2016,05,17,05,53,10.00
2016,05,17,05,54,10.00
2016,05,17,05,55,10.10
2016,05,17,05,56,10.10
2016,05,17,05,57,10.10
2016,05,17,05,58,10.10
2016,05,17,05,59,10.10
2016,05,17,06,00,10.10
2016,05,17,06,01,10.10
2016,05,17,06,02,10.10
2016,05,17,06,03,10.10
2016,05,17,06,04,10.10
2016,05,17,06,05,10.10
2016,05,17,06,06,10.10
2016,05,17,06,07,10.10
2016,05,17,06,08,10.10
2016,05,17,06,09,10.10
2016,05,17,06,10,10.10
2016,05,17,06,11,10.10
2016,05,17,06,12,10.10
2016,05,17,06,13,10.10
2016,05,17,06,14,10.10
2016,05,17,06,15,10.10
2016,05,17,06,16,10.10
2016,05,17,06,17,10.20
2016,05,17,06,18,10.10
2016,05,17,06,19,10.20
2016,05,17,06,20,10.20
2016,05,17,06,21,10.20
2016,05,17,06,22,10.20
2016,05,17,06,23,10.20
2016,05,17,06,24,10.20
2016,05,17,06,25,10.20
2016,05,17,06,26,10.20
2016,05,17,06,27,10.20
2016,05,17,06,28,10.20
2016,05,17,06,29,10.20
2016,05,17,06,30,10.20
2016,05,17,06,31,10.30
2016,05,17,06,32,10.30
2016,05,17,06,33,10.30
2016,05,17,06,34,10.30
2016,05,17,06,35,10.30
2016,05,17,06,36,10.40
2016,05,17,06,37,10.40
2016,05,17,06,38,10.50
2016,05,17,06,39,10.50
2016,05,17,06,40,10.60
2016,05,17,06,41,10.60
2016,05,17,06,42,10.70
2016,05,17,06,43,10.70
2016,05,17,06,44,10.80
2016,05,17,06,45,10.80
2016,05,17,06,46,10.80
2016,05,17,06,47,10.90
2016,05,17,06,48,10.90
2016,05,17,06,49,11.00
2016,05,17,06,50,11.00
2016,05,17,06,51,11.10
2016,05,17,06,52,11.10
2016,05,17,06,53,11.10
2016,05,17,06,54,11.10
2016,05,17,06,55,11.20
2016,05,17,06,56,11.20
2016,05,17,06,57,11.20
2016,05,17,06,58,11.20
2016,05,17,06,59,11.20
2016,05,17,07,00,11.30
2016,05,17,07,01,11.30
2016,05,17,07,02,11.30
2016,05,17,07,03,11.40
2016,05,17,07,04,11.50
2016,05,17,07,05,11.50
2016,05,17,07,06,11.60
2016,05,17,07,07,11.60
2016,05,17,07,08,11.70
2016,05,17,07,09,11.80
2016,05,17,07,10,11.80
2016,05,17,07,11,11.90
2016,05,17,07,12,11.90
2016,05,17,07,13,12.00
2016,05,17,07,14,12.10
2016,05,17,07,15,12.10
2016,05,17,07,16,12.20
2016,05,17,07,17,12.20
2016,05,17,07,18,12.20
2016,05,17,07,19,12.30
2016,05,17,07,20,12.40
2016,05,17,07,21,12.40
2016,05,17,07,22,12.50
2016,05,17,07,23,12.60
2016,05,17,07,24,12.70
2016,05,17,07,25,12.80
2016,05,17,07,26,12.80
2016,05,17,07,27,12.90
2016,05,17,07,28,13.00
2016,05,17,07,29,13.10
2016,05,17,07,30,13.10
2016,05,17,07,31,13.20
2016,05,17,07,32,13.20
2016,05,17,07,33,13.20
2016,05,17,07,34,13.30
2016,05,17,07,35,13.30
2016,05,17,07,36,13.30
2016,05,17,07,37,13.30
2016,05,17,07,38,13.30
2016,05,17,07,39,13.30
2016,05,17,07,40,13.30
2016,05,17,07,41,13.40
2016,05,17,07,42,13.40
2016,05,17,07,43,13.40
2016,05,17,07,44,13.40
2016,05,17,07,45,13.50
2016,05,17,07,46,13.50
2016,05,17,07,47,13.60
2016,05,17,07,48,13.60
2016,05,17,07,49,13.70
2016,05,17,07,50,13.70
2016,05,17,07,51,13.80
2016,05,17,07,52,13.80
2016,05,17,07,53,13.90
2016,05,17,07,54,13.90
2016,05,17,07,55,13.90
2016,05,17,07,56,14.00
2016,05,17,07,57,14.10
2016,05,17,07,58,14.10
2016,05,17,07,59,14.10
2016,05,17,08,00,14.20
2016,05,17,08,01,14.20
2016,05,17,08,02,14.30
2016,05,17,08,03,14.30
2016,05,17,08,04,14.30
2016,05,17,08,05,14.40
2016,05,17,08,06,14.40
2016,05,17,08,07,14.40
2016,05,17,08,08,14.50
2016,05,17,08,09,14.60
2016,05,17,08,10,14.60
2016,05,17,08,11,14.60
2016,05,17,08,12,14.70
2016,05,17,08,13,14.80
2016,05,17,08,14,14.80
2016,05,17,08,15,14.90
2016,05,17,08,16,15.00
2016,05,17,08,17,15.00
2016,05,17,08,18,15.00
2016,05,17,08,19,15.00
2016,05,17,08,20,15.00
2016,05,17,08,21,15.00
2016,05,17,08,22,15.00
2016,05,17,08,23,15.00
2016,05,17,08,24,15.10
2016,05,17,08,25,15.20
2016,05,17,08,26,15.30
2016,05,17,08,27,15.30
2016,05,17,08,28,15.40
2016,05,17,08,29,15.40
2016,05,17,08,30,15.40
2016,05,17,08,31,15.40
2016,05,17,08,32,15.40
2016,05,17,08,33,15.50
2016,05,17,08,34,15.50
2016,05,17,08,35,15.60
2016,05,17,08,36,15.60
2016,05,17,08,37,15.70
2016,05,17,08,38,15.80
2016,05,17,08,39,15.80
2016,05,17,08,40,15.80
2016,05,17,08,41,15.90
2016,05,17,08,42,15.90
2016,05,17,08,43,15.90
2016,05,17,08,44,15.90
2016,05,17,08,45,16.00
2016,05,17,08,46,16.10
2016,05,17,08,47,16.20
2016,05,17,08,48,16.20
2016,05,17,08,49,16.20
2016,05,17,08,50,16.20
2016,05,17,08,51,16.10
2016,05,17,08,52,16.00
2016,05,17,08,53,15.80
2016,05,17,08,54,15.60
2016,05,17,08,55,15.50
2016,05,17,08,56,15.30
2016,05,17,08,57,15.20
2016,05,17,08,58,15.20
2016,05,17,08,59,15.10
2016,05,17,09,00,15.00
2016,05,17,09,01,15.00
2016,05,17,09,02,15.00
2016,05,17,09,03,15.10
2016,05,17,09,04,15.20
2016,05,17,09,05,15.20
2016,05,17,09,06,15.20
2016,05,17,09,07,15.30
2016,05,17,09,08,15.30
2016,05,17,09,09,15.30
2016,05,17,09,10,15.20
2016,05,17,09,11,15.20
2016,05,17,09,12,15.30
2016,05,17,09,13,15.30
2016,05,17,09,14,15.40
2016,05,17,09,15,15.40
2016,05,17,09,16,15.40
2016,05,17,09,17,15.40
2016,05,17,09,18,15.40
2016,05,17,09,19,15.40
2016,05,17,09,20,15.40
2016,05,17,09,21,15.40
2016,05,17,09,22,15.50
2016,05,17,09,23,15.50
2016,05,17,09,24,15.70
2016,05,17,09,25,15.70
2016,05,17,09,26,15.80
2016,05,17,09,27,15.90
2016,05,17,09,28,16.00
2016,05,17,09,29,16.10
2016,05,17,09,30,16.10
2016,05,17,09,31,16.10
2016,05,17,09,32,16.10
2016,05,17,09,33,16.00
2016,05,17,09,34,16.00
2016,05,17,09,35,16.00
2016,05,17,09,36,16.10
2016,05,17,09,37,16.20
2016,05,17,09,38,16.30
2016,05,17,09,39,16.40
2016,05,17,09,40,16.40
2016,05,17,09,41,16.40
2016,05,17,09,42,16.30
2016,05,17,09,43,16.30
2016,05,17,09,44,16.30
2016,05,17,09,45,16.40
2016,05,17,09,46,16.40
2016,05,17,09,47,16.50
2016,05,17,09,48,16.40
2016,05,17,09,49,16.30
2016,05,17,09,50,16.30
2016,05,17,09,51,16.30
2016,05,17,09,52,16.40
2016,05,17,09,53,16.40
2016,05,17,09,54,16.50
2016,05,17,09,55,16.60
2016,05,17,09,56,16.50
2016,05,17,09,57,16.50
2016,05,17,09,58,16.50
2016,05,17,09,59,16.40
2016,05,17,10,00,16.40
2016,05,17,10,01,16.40
2016,05,17,10,02,16.40
2016,05,17,10,03,16.30
2016,05,17,10,04,16.20
2016,05,17,10,05,16.10
2016,05,17,10,06,16.10
2016,05,17,10,07,16.10
2016,05,17,10,08,16.00
2016,05,17,10,09,16.00
2016,05,17,10,10,16.10
2016,05,17,10,11,16.20
2016,05,17,10,12,16.30
2016,05,17,10,13,16.30
2016,05,17,10,14,16.50
2016,05,17,10,15,16.50
2016,05,17,10,16,16.40
2016,05,17,10,17,16.40
2016,05,17,10,18,16.30
2016,05,17,10,19,16.30
2016,05,17,10,20,16.30
2016,05,17,10,21,16.40
2016,05,17,10,22,16.40
2016,05,17,10,23,16.30
2016,05,17,10,24,16.30
2016,05,17,10,25,16.30
2016,05,17,10,26,16.40
2016,05,17,10,27,16.40
2016,05,17,10,28,16.40
2016,05,17,10,29,16.40
2016,05,17,10,30,16.40
2016,05,17,10,31,16.50
2016,05,17,10,32,16.60
2016,05,17,10,33,16.50
2016,05,17,10,34,16.50
2016,05,17,10,35,16.50
2016,05,17,10,36,16.60
2016,05,17,10,37,16.60
2016,05,17,10,38,16.50
2016,05,17,10,39,16.40
2016,05,17,10,40,16.40
2016,05,17,10,41,16.40
2016,05,17,10,42,16.40
2016,05,17,10,43,16.40
2016,05,17,10,44,16.40
2016,05,17,10,45,16.40
2016,05,17,10,46,16.50
2016,05,17,10,47,16.60
2016,05,17,10,48,16.80
2016,05,17,10,49,16.90
2016,05,17,10,50,16.90
2016,05,17,10,51,16.90
2016,05,17,10,52,16.80
2016,05,17,10,53,16.80
2016,05,17,10,54,16.80
2016,05,17,10,55,16.80
2016,05,17,10,56,16.80
2016,05,17,10,57,16.70
2016,05,17,10,58,16.60
2016,05,17,10,59,16.60
2016,05,17,11,00,16.50
2016,05,17,11,01,16.60
2016,05,17,11,02,16.50
2016,05,17,11,03,16.40
2016,05,17,11,04,16.40
2016,05,17,11,05,16.40
2016,05,17,11,06,16.40
2016,05,17,11,07,16.50
2016,05,17,11,08,16.50
2016,05,17,11,09,16.50
2016,05,17,11,10,16.60
2016,05,17,11,11,16.60
2016,05,17,11,12,16.60
2016,05,17,11,13,16.60
2016,05,17,11,14,16.50
2016,05,17,11,15,16.40
2016,05,17,11,16,16.30
2016,05,17,11,17,16.30
2016,05,17,11,18,16.30
2016,05,17,11,19,16.30
2016,05,17,11,20,16.30
2016,05,17,11,21,16.30
2016,05,17,11,22,16.50
2016,05,17,11,23,16.60
2016,05,17,11,24,16.70
2016,05,17,11,25,16.70
2016,05,17,11,26,16.70
2016,05,17,11,27,16.60
2016,05,17,11,28,16.50
2016,05,17,11,29,16.30
2016,05,17,11,30,16.20
2016,05,17,11,31,16.20
2016,05,17,11,32,16.20
2016,05,17,11,33,16.30
2016,05,17,11,34,16.40
2016,05,17,11,35,16.60
2016,05,17,11,36,16.70
2016,05,17,11,37,16.70
2016,05,17,11,38,16.70
2016,05,17,11,39,16.70
2016,05,17,11,40,16.80
2016,05,17,11,41,16.90
2016,05,17,11,42,16.80
2016,05,17,11,43,16.60
2016,05,17,11,44,16.50
2016,05,17,11,45,16.50
2016,05,17,11,46,16.60
2016,05,17,11,47,16.60
2016,05,17,11,48,16.60
2016,05,17,11,49,16.70
2016,05,17,11,50,16.70
2016,05,17,11,51,16.70
2016,05,17,11,52,16.60
2016,05,17,11,53,16.60
2016,05,17,11,54,16.60
2016,05,17,11,55,16.60
2016,05,17,11,56,16.60
2016,05,17,11,57,16.60
2016,05,17,11,58,16.60
2016,05,17,11,59,16.80
2016,05,17,12,00,16.90
2016,05,17,12,01,16.90
2016,05,17,12,02,17.00
2016,05,17,12,03,17.10
2016,05,17,12,04,17.00
2016,05,17,12,05,17.00
2016,05,17,12,06,17.10
2016,05,17,12,07,17.20
2016,05,17,12,08,17.40
2016,05,17,12,09,17.40
2016,05,17,12,10,17.40
2016,05,17,12,11,17.20
2016,05,17,12,12,17.20
2016,05,17,12,13,17.10
2016,05,17,12,14,17.10
2016,05,17,12,15,17.10
2016,05,17,12,16,17.20
2016,05,17,12,17,17.30
2016,05,17,12,18,17.30
2016,05,17,12,19,17.30
2016,05,17,12,20,17.20
2016,05,17,12,21,17.20
2016,05,17,12,22,17.10
2016,05,17,12,23,17.10
2016,05,17,12,24,17.10
2016,05,17,12,25,17.00
2016,05,17,12,26,16.90
2016,05,17,12,27,16.90
2016,05,17,12,28,16.80
2016,05,17,12,29,16.80
2016,05,17,12,30,16.80
2016,05,17,12,31,16.80
2016,05,17,12,32,16.90
2016,05,17,12,33,16.90
2016,05,17,12,34,17.00
2016,05,17,12,35,17.10
2016,05,17,12,36,17.20
2016,05,17,12,37,17.40
2016,05,17,12,38,17.50
2016,05,17,12,39,17.60
2016,05,17,12,40,17.60
2016,05,17,12,41,17.50
2016,05,17,12,42,17.40
2016,05,17,12,43,17.30
2016,05,17,12,44,17.30
2016,05,17,12,45,17.20
2016,05,17,12,46,17.20
2016,05,17,12,47,17.10
2016,05,17,12,48,17.10
2016,05,17,12,49,17.10
2016,05,17,12,50,17.20
2016,05,17,12,51,17.30
2016,05,17,12,52,17.40
2016,05,17,12,53,17.40
2016,05,17,12,54,17.40
2016,05,17,12,55,17.30
2016,05,17,12,56,17.30
2016,05,17,12,57,17.40
2016,05,17,12,58,17.50
2016,05,17,12,59,17.50
2016,05,17,13,00,17.50
2016,05,17,13,01,17.50
2016,05,17,13,02,17.50
2016,05,17,13,03,17.40
2016,05,17,13,04,17.50
2016,05,17,13,05,17.50
2016,05,17,13,06,17.50
2016,05,17,13,07,17.50
2016,05,17,13,08,17.60
2016,05,17,13,09,17.60
2016,05,17,13,10,17.70
2016,05,17,13,11,17.80
2016,05,17,13,12,17.80
2016,05,17,13,13,17.80
2016,05,17,13,14,17.80
2016,05,17,13,15,17.80
2016,05,17,13,16,17.80
2016,05,17,13,17,17.80
2016,05,17,13,18,17.80
2016,05,17,13,19,17.90
2016,05,17,13,20,17.90
2016,05,17,13,21,17.90
2016,05,17,13,22,17.90
2016,05,17,13,23,17.90
2016,05,17,13,24,17.90
2016,05,17,13,25,17.80
2016,05,17,13,26,17.80
2016,05,17,13,27,17.80
2016,05,17,13,28,17.80
2016,05,17,13,29,17.80
2016,05,17,13,30,17.90
2016,05,17,13,31,18.00
2016,05,17,13,32,18.10
2016,05,17,13,33,18.30
2016,05,17,13,34,18.40
2016,05,17,13,35,18.30
2016,05,17,13,36,18.20
2016,05,17,13,37,18.10
2016,05,17,13,38,17.90
2016,05,17,13,39,17.80
2016,05,17,13,40,17.90
2016,05,17,13,41,18.00
2016,05,17,13,42,18.00
2016,05,17,13,43,18.00
2016,05,17,13,44,18.00
2016,05,17,13,45,17.90
2016,05,17,13,46,17.80
2016,05,17,13,47,17.70
2016,05,17,13,48,17.60
2016,05,17,13,49,17.60
2016,05,17,13,50,17.60
2016,05,17,13,51,17.60
2016,05,17,13,52,17.70
2016,05,17,13,53,17.80
2016,05,17,13,54,18.00
2016,05,17,13,55,18.00
2016,05,17,13,56,17.90
2016,05,17,13,57,17.80
2016,05,17,13,58,17.80
2016,05,17,13,59,17.70
2016,05,17,14,00,17.80
2016,05,17,14,01,17.80
2016,05,17,14,02,17.80
2016,05,17,14,03,17.90
2016,05,17,14,04,18.00
2016,05,17,14,05,18.00
2016,05,17,14,06,17.90
2016,05,17,14,07,17.80
2016,05,17,14,08,17.70
2016,05,17,14,09,17.70
2016,05,17,14,10,17.70
2016,05,17,14,11,17.60
2016,05,17,14,12,17.60
2016,05,17,14,13,17.60
2016,05,17,14,14,17.70
2016,05,17,14,15,17.80
2016,05,17,14,16,17.90
2016,05,17,14,17,18.00
2016,05,17,14,18,18.10
2016,05,17,14,19,18.10
2016,05,17,14,20,18.10
2016,05,17,14,21,18.10
2016,05,17,14,22,18.10
2016,05,17,14,23,18.00
2016,05,17,14,24,17.90
2016,05,17,14,25,17.90
2016,05,17,14,26,17.80
2016,05,17,14,27,17.70
2016,05,17,14,28,17.70
2016,05,17,14,29,17.80
2016,05,17,14,30,17.70
2016,05,17,14,31,17.60
2016,05,17,14,32,17.60
2016,05,17,14,33,17.50
2016,05,17,14,34,17.40
2016,05,17,14,35,17.40
2016,05,17,14,36,17.40
2016,05,17,14,37,17.50
2016,05,17,14,38,17.60
2016,05,17,14,39,17.60
2016,05,17,14,40,17.60
2016,05,17,14,41,17.60
2016,05,17,14,42,17.80
2016,05,17,14,43,17.90
2016,05,17,14,44,17.90
2016,05,17,14,45,17.90
2016,05,17,14,46,17.90
2016,05,17,14,47,17.90
2016,05,17,14,48,17.90
2016,05,17,14,49,17.90
2016,05,17,14,50,17.90
2016,05,17,14,51,17.80
2016,05,17,14,52,17.70
2016,05,17,14,53,17.70
2016,05,17,14,54,17.70
2016,05,17,14,55,17.70
2016,05,17,14,56,17.70
2016,05,17,14,57,17.70
2016,05,17,14,58,17.80
2016,05,17,14,59,17.90
2016,05,17,15,00,17.90
2016,05,17,15,01,17.90
2016,05,17,15,02,17.90
2016,05,17,15,03,17.80
2016,05,17,15,04,18.00
2016,05,17,15,05,18.10
2016,05,17,15,06,18.20
2016,05,17,15,07,18.40
2016,05,17,15,08,18.50
2016,05,17,15,09,18.50
2016,05,17,15,10,18.40
2016,05,17,15,11,18.30
2016,05,17,15,12,18.20
2016,05,17,15,13,18.10
2016,05,17,15,14,18.10
2016,05,17,15,15,18.10
2016,05,17,15,16,18.20
2016,05,17,15,17,18.20
2016,05,17,15,18,18.20
2016,05,17,15,19,18.30
2016,05,17,15,20,18.20
2016,05,17,15,21,18.10
2016,05,17,15,22,18.20
2016,05,17,15,23,18.20
2016,05,17,15,24,18.40
2016,05,17,15,25,18.40
2016,05,17,15,26,18.30
2016,05,17,15,27,18.30
2016,05,17,15,28,18.30
2016,05,17,15,29,18.20
2016,05,17,15,30,18.20
2016,05,17,15,31,18.10
2016,05,17,15,32,18.20
2016,05,17,15,33,18.20
2016,05,17,15,34,18.20
2016,05,17,15,35,18.20
2016,05,17,15,36,18.10
2016,05,17,15,37,18.10
2016,05,17,15,38,18.10
2016,05,17,15,39,18.20
2016,05,17,15,40,18.20
2016,05,17,15,41,18.30
2016,05,17,15,42,18.30
2016,05,17,15,43,18.30
2016,05,17,15,44,18.20
2016,05,17,15,45,18.20
2016,05,17,15,46,18.20
2016,05,17,15,47,18.20
2016,05,17,15,48,18.20
2016,05,17,15,49,18.20
2016,05,17,15,50,18.20
2016,05,17,15,51,18.30
2016,05,17,15,52,18.30
2016,05,17,15,53,18.30
2016,05,17,15,54,18.20
2016,05,17,15,55,18.30
2016,05,17,15,56,18.40
2016,05,17,15,57,18.50
2016,05,17,15,58,18.50
2016,05,17,15,59,18.60
2016,05,17,16,00,18.60
2016,05,17,16,01,18.50
2016,05,17,16,02,18.40
2016,05,17,16,03,18.40
2016,05,17,16,04,18.30
2016,05,17,16,05,18.30
2016,05,17,16,06,18.30
2016,05,17,16,07,18.40
2016,05,17,16,08,18.50
2016,05,17,16,09,18.60
2016,05,17,16,10,18.80
2016,05,17,16,11,18.80
2016,05,17,16,12,18.70
2016,05,17,16,13,18.60
2016,05,17,16,14,18.60
2016,05,17,16,15,18.50
2016,05,17,16,16,18.40
2016,05,17,16,17,18.40
2016,05,17,16,18,18.40
2016,05,17,16,19,18.50
2016,05,17,16,20,18.50
2016,05,17,16,21,18.60
2016,05,17,16,22,18.60
2016,05,17,16,23,18.60
2016,05,17,16,24,18.70
2016,05,17,16,25,18.80
2016,05,17,16,26,18.80
2016,05,17,16,27,18.70
2016,05,17,16,28,18.80
2016,05,17,16,29,18.80
2016,05,17,16,30,18.70
2016,05,17,16,31,18.60
2016,05,17,16,32,18.50
2016,05,17,16,33,18.40
2016,05,17,16,34,18.30
2016,05,17,16,35,18.30
2016,05,17,16,36,18.30
2016,05,17,16,37,18.40
2016,05,17,16,38,18.50
2016,05,17,16,39,18.70
2016,05,17,16,40,18.80
2016,05,17,16,41,18.80
2016,05,17,16,42,18.90
2016,05,17,16,43,18.90
2016,05,17,16,44,18.90
2016,05,17,16,45,18.90
2016,05,17,16,46,18.80
2016,05,17,16,47,18.80
2016,05,17,16,48,18.90
2016,05,17,16,49,18.90
2016,05,17,16,50,18.90
2016,05,17,16,51,18.80
2016,05,17,16,52,18.70
2016,05,17,16,53,18.70
2016,05,17,16,54,18.70
2016,05,17,16,55,18.70
2016,05,17,16,56,18.80
2016,05,17,16,57,18.80
2016,05,17,16,58,18.80
2016,05,17,16,59,18.70
2016,05,17,17,00,18.70
2016,05,17,17,01,18.70
2016,05,17,17,02,18.70
2016,05,17,17,03,18.70
2016,05,17,17,04,18.70
2016,05,17,17,05,18.60
2016,05,17,17,06,18.60
2016,05,17,17,07,18.60
2016,05,17,17,08,18.60
2016,05,17,17,09,18.60
2016,05,17,17,10,18.60
2016,05,17,17,11,18.60
2016,05,17,17,12,18.70
2016,05,17,17,13,18.60
2016,05,17,17,14,18.60
2016,05,17,17,15,18.60
2016,05,17,17,16,18.60
2016,05,17,17,17,18.70
2016,05,17,17,18,18.80
2016,05,17,17,19,18.80
2016,05,17,17,20,18.80
2016,05,17,17,21,18.80
2016,05,17,17,22,18.70